Location: La Estación
(39.9833°N, 3.9500°W)
Time: 16:26:28
(UTC+00:00)

IRS-1C Rocket - Pass Details

Date: 14 June 2025
Orbit: 799 x 804 km, 98.7° (Epoch: 19 July)

Event Time Altitude Azimuth Distance (km) Brightness Sun altitude
Exits shadow 21:35:12 25° 161° (SSE) 1,570 5.1 -16.4°
Maximum altitude 21:38:21 84° 75° (ENE) 811 4.0 -16.8°
Drops below altitude 10° 21:43:38 10° 348° (NNW) 2,382 7.6 -17.4°
Sets 21:45:58 0° 348° (NNW) 3,316 8.5 -17.7°
